Location: Mason
(37.5237°N, 89.2543°W)
Time: 07:00:25
(UTC+00:00)

NOAA 6 - Pass Details

Date: 24 January 2021
Orbit: 772 x 787 km, 98.7° (Epoch: 09 March)

Event Time Altitude Azimuth Distance (km) Brightness Sun altitude
Rises 12:12:29 0° 9° (N) 3,286 7.2 -10.9°
Reaches altitude 10° 12:14:50 10° 7° (N) 2,354 6.4 -10.4°
Maximum altitude 12:19:58 66° 286° (WNW) 857 4.0 -9.4°
Drops below altitude 10° 12:25:05 10° 205° (SSW) 2,338 6.4 -8.5°
Sets 12:27:24 0° 203° (SSW) 3,261 7.2 -8.0°
